Simultaneous Nadir Overpasses (SNOs) Predictions

Prediction of SNOs between NOAA-19 and METOP-C Satellite Orbit:

Table of predicted SNOs for the next 14.0 days since TLE Epoch: 4/5/2019
Index Date (NOAA-19) Time (NOAA-19) Lat,Lon (NOAA-19) SZA (NOAA-19 ) Date (METOP-C) Time (METOP-C) Lat,Lon (METOP-C) SZA (METOP-C ) Distance(km) Time Diff (sec)
1 04/15/2019 19:19:41 79.12, -94.96 69.58 04/15/2019 19:20:47 79.14, -94.96 69.60 1.20 66
2 04/15/2019 20:10:36 -79.12, 72.37 110.44 04/15/2019 20:11:28 -79.13, 72.34 110.42 1.57 52
3 04/15/2019 21:01:42 79.13,-120.48 69.55 04/15/2019 21:02:09 79.12,-120.39 69.56 1.96 27
4 04/15/2019 21:52:37 -79.12, 46.84 110.47 04/15/2019 21:52:50 -79.12, 46.90 110.46 1.33 13
5 04/15/2019 22:43:42 79.10,-145.74 69.51 04/15/2019 22:43:31 79.11,-145.83 69.52 2.07 11
6 04/15/2019 23:34:37 -79.09, 21.58 110.51 04/15/2019 23:34:12 -79.10, 21.47 110.51 2.61 25
7 04/16/2019 00:25:43 79.10,-171.27 69.49 04/16/2019 00:24:53 79.10,-171.26 69.47 0.76 50
8 04/16/2019 01:16:38 -79.10, -3.95 110.53 04/16/2019 01:15:34 -79.09, -3.96 110.55 0.63 64




NCC Satellite Simultaneous Nadir Overpasses (SNOs) Prediction Service
